TimeAKST,TemperatureF,Dew PointF,Humidity,Sea Level PressureIn,VisibilityMPH,Wind Direction,Wind SpeedMPH,Gust SpeedMPH,PrecipitationIn,Events,Conditions,WindDirDegrees,DateUTC
12:53 AM,39.0,33.1,79,29.86,10.0,East,15.0,21.9,N/A,,Mostly Cloudy,90,2013-11-25 09:53:00
1:53 AM,39.0,32.0,76,29.86,10.0,East,16.1,21.9,N/A,,Scattered Clouds,90,2013-11-25 10:53:00
3:53 AM,39.0,32.0,76,29.85,10.0,East,12.7,-,N/A,,Mostly Cloudy,100,2013-11-25 12:53:00
4:53 AM,39.0,32.0,76,29.83,10.0,East,9.2,-,N/A,,Overcast,90,2013-11-25 13:53:00
5:53 AM,39.0,32.0,76,29.82,10.0,East,6.9,-,N/A,,Overcast,90,2013-11-25 14:53:00
6:53 AM,39.0,30.9,73,29.81,10.0,NE,4.6,-,N/A,,Overcast,50,2013-11-25 15:53:00
7:53 AM,36.0,28.9,76,29.80,10.0,NNE,6.9,-,N/A,,Scattered Clouds,30,2013-11-25 16:53:00
8:53 AM,36.0,28.9,76,29.79,10.0,North,5.8,-,N/A,,Overcast,10,2013-11-25 17:53:00
9:53 AM,36.0,30.0,79,29.79,10.0,North,8.1,-,N/A,,Overcast,10,2013-11-25 18:53:00
10:53 AM,36.0,28.9,76,29.79,10.0,North,9.2,-,N/A,,Partly Cloudy,360,2013-11-25 19:53:00
11:53 AM,37.0,30.0,76,29.79,10.0,North,8.1,-,N/A,,Overcast,10,2013-11-25 20:53:00
12:53 PM,37.0,30.0,76,29.78,10.0,North,8.1,-,N/A,,Overcast,10,2013-11-25 21:53:00
1:53 PM,37.9,28.9,70,29.78,10.0,North,5.8,-,N/A,,Overcast,10,2013-11-25 22:53:00
2:53 PM,37.0,28.0,70,29.77,10.0,Calm,Calm,-,N/A,,Mostly Cloudy,0,2013-11-25 23:53:00
3:53 PM,36.0,27.0,70,29.77,10.0,NNW,3.5,-,N/A,,Clear,340,2013-11-26 00:53:00
4:53 PM,33.1,28.0,82,29.77,10.0,WSW,6.9,-,N/A,,Mostly Cloudy,250,2013-11-26 01:53:00
5:53 PM,33.1,28.0,82,29.78,10.0,West,5.8,-,N/A,,Mostly Cloudy,270,2013-11-26 02:53:00
6:53 PM,32.0,27.0,82,29.78,10.0,West,3.5,-,N/A,,Mostly Cloudy,280,2013-11-26 03:53:00
7:53 PM,30.9,26.1,82,29.80,10.0,WNW,4.6,-,N/A,,Mostly Cloudy,300,2013-11-26 04:53:00
8:53 PM,24.1,23.0,96,29.81,10.0,NNW,4.6,-,N/A,,Scattered Clouds,330,2013-11-26 05:53:00
9:53 PM,26.1,24.1,92,29.82,10.0,North,4.6,-,N/A,,Overcast,350,2013-11-26 06:53:00
10:53 PM,28.0,24.1,85,29.83,10.0,North,8.1,-,N/A,,Mostly Cloudy,360,2013-11-26 07:53:00
11:53 PM,28.0,24.1,85,29.83,10.0,North,10.4,-,N/A,,Scattered Clouds,350,2013-11-26 08:53:00